This is the latest recevied weather packets stored in our database for station/object WX5KDM. If no packets are shown the sender has not sent any weather packets the latest 10 day(s).
| Time | Temp. | Humidity | Pressure | Rain* | Wind** | Luminosity | Snow |
|---|---|---|---|---|---|---|---|
| 1788271938 | 30.56° C | 71% | 1020.3 hPa | 0 mm | - | - | - |
| 1788271638 | 30.56° C | 71% | 1020.5 hPa | 0 mm | - | - | - |
| 1788271336 | 30.56° C | 71% | 1020.5 hPa | 0 mm | - | - | - |
| 1788271032 | 30° C | 71% | 1020.4 hPa | 0 mm | - | - | - |
| 1788270726 | 29.44° C | 74% | 1020.4 hPa | 0 mm | - | - | - |
| 1788270422 | 29.44° C | 75% | 1020.4 hPa | 0 mm | - | - | - |
| 1788270116 | 28.89° C | 76% | 1020.5 hPa | 0 mm | - | - | - |
| 1788269824 | 28.33° C | 78% | 1020.4 hPa | 0 mm | - | - | - |
| 1788269515 | 28.33° C | 78% | 1020.5 hPa | 0 mm | - | - | - |
| 1788269209 | 27.78° C | 81% | 1020.3 hPa | 0 mm | - | - | - |
| 1788268903 | 28.33° C | 81% | 1020.4 hPa | 0 mm | - | - | - |
| 1788268597 | 27.78° C | 82% | 1020.4 hPa | 0 mm | - | - | - |
| 1788268292 | 27.22° C | 83% | 1020.2 hPa | 0 mm | - | - | - |
| 1788267987 | 26.67° C | 85% | 1020.4 hPa | 0 mm | - | - | - |
| 1788267686 | 26.67° C | 85% | 1020.6 hPa | 0 mm | - | - | - |
| 1788267384 | 26.67° C | 85% | 1020.5 hPa | 0 mm | - | - | - |
| 1788267079 | 26.11° C | 87% | 1020.5 hPa | 0 mm | - | - | - |
| 1788266774 | 25.56° C | 88% | 1020.3 hPa | 0 mm | - | - | - |
| 1788266469 | 25.56° C | 88% | 1020.3 hPa | 0 mm | - | - | - |
| 1788266168 | 25.56° C | 89% | 1020.1 hPa | 0 mm | - | - | - |
| 1788265868 | 25° C | 89% | 1020.1 hPa | 0 mm | - | - | - |
| 1788265567 | 25° C | 91% | 1020.1 hPa | 0 mm | - | - | - |
| 1788265261 | 24.44° C | 93% | 1020.2 hPa | 0 mm | - | - | - |
| 1788264955 | 23.33° C | 95% | 1020 hPa | 0 mm | - | - | - |
| 1788264650 | 23.33° C | 97% | 1020.2 hPa | 0 mm | - | - | - |
* Rain latest hour (hover to see other rain measurements)
** Current wind speed in m/s (hover to see current wind gust speed)